CAMEO

operational
NORAD ID: 11081 Int'l Des: 1978-098 Owner: GSFC Country: US
LEOCIRCULARRETROGRADESSO

About CAMEO

Description loading...

Live Position

Loading 3D Globe...

Upcoming Passes

Altitude History

Altitude vs Time

uPlot chart will show altitude changes over time

Two-Line Element Set

1 11081U 78098B 26062.40107016 .00000050 00000-0 82150-4 0 9993
2 11081 99.4112 356.9963 0029763 79.9185 280.5326 13.86096253233159
Epoch: Mar 3, 2026 • Age: 40 hours

Current Status

Altitude 934.8 km
Velocity 7.40 km/s
Sub-Earth Point 79.88°N, 149.55°W
Launch Date Oct 24, 1978
Age 47.3 years
Type other

Technical Details

Classification Payload
Mass 89.00 kg
Dry Mass 56.00 kg
Total Mass 934.00 kg
Length 0.10 m
Diameter 2.40 m
Span 2.40 m
Shape 5 Cyl + 2 Box
Manufacturer GSFC
Bus Type Delta Attached
Phase Status Attached in Orbit
Owner/State GSFC/US

Large Constellations

Loading constellations...